Theta_e
300 302 303 303 305 306 306 306 306 306 306 307 309 310 310 309 308 308 308 308 308 309 310 309 308 307 307 306 305 306 305 304 303 302 302 301 301 301 301 301 301 300 300 300
299 302 304 303 304 305 305 305 305 305 305 304 306 306 306 306 306 306 306 307 307 308 308 308 306 306 307 306 304 304 304 304 303 302 301 301 301 301 301 301 300 300 300 300
306 309 302 301 302 304 304 305 305 304 304 304 303 305 305 306 306 306 306 306 306 306 307 307 305 306 306 306 304 304 304 303 302 301 301 300 300 300 301 300 300 299 300 300
301 306 301 300 301 302 303 304 304 304 304 303 301 303 305 306 305 303 304 305 305 305 305 305 305 304 305 305 304 303 303 303 302 301 301 300 300 300 300 300 300 300 300 300
304 299 299 303 303 301 303 302 303 304 304 304 302 300 304 303 304 305 306 306 306 306 305 304 304 304 304 304 304 303 303 303 302 301 301 300 300 300 300 300 300 299 299 300
302 296 298 300 297 301 299 300 300 300 301 303 303 301 306 307 306 306 305 305 306 306 305 304 303 302 302 303 304 303 303 303 302 302 301 301 301 301 300 300 300 300 299 300
302 299 297 297 298 298 301 301 304 305 305 307 303 302 305 306 305 304 306 306 304 305 305 305 304 301 301 302 303 303 303 303 302 301 301 301 301 301 300 300 301 300 300 299
306 307 299 298 301 301 300 302 307 311 310 308 298 302 305 304 305 304 303 303 304 305 304 303 302 301 300 300 301 302 302 302 301 301 301 301 301 301 300 300 301 300 300 300
304 303 297 296 298 301 300 301 302 305 300 305 305 303 304 305 305 305 304 304 304 302 302 301 300 299 298 299 300 301 301 301 301 300 301 300 301 300 300 300 300 300 300 299
299 304 297 296 296 298 300 301 301 303 308 308 307 307 308 307 306 302 301 300 300 299 298 298 297 297 296 297 298 300 300 301 300 300 300 300 300 300 300 299 299 299 299 299
300 300 300 297 299 300 299 301 301 305 304 308 308 309 302 303 302 301 299 299 299 298 298 297 297 296 295 296 296 298 299 300 300 300 300 300 300 299 299 299 299 299 299 299
299 301 301 302 297 295 299 301 302 304 305 302 305 307 302 300 300 301 300 299 297 297 296 295 295 296 295 295 294 295 296 298 299 299 299 300 299 299 299 299 299 299 299 298
294 300 304 302 300 296 299 299 299 302 302 311 308 307 300 299 300 299 299 297 296 295 295 294 293 293 293 292 293 293 293 295 296 298 298 299 299 298 299 299 299 298 298 298
291 294 298 300 301 301 300 299 299 302 305 305 304 306 301 300 300 298 296 295 294 293 292 292 292 291 290 290 290 291 291 292 293 295 297 298 298 298 298 298 298 298 298 297
290 291 293 293 294 297 304 300 299 301 302 305 303 303 303 300 298 295 294 294 293 292 290 290 289 289 289 288 288 288 290 290 291 293 295 296 297 297 297 297 297 297 297 297
290 290 291 295 293 297 298 300 306 304 300 301 305 307 298 296 295 293 292 292 291 290 288 287 287 287 286 285 285 287 287 288 289 290 291 293 294 295 295 296 296 296 296 296
288 290 292 293 293 294 298 301 301 306 304 304 302 301 300 295 292 291 290 289 288 286 286 284 284 284 283 282 283 286 285 285 287 287 288 288 289 292 293 294 295 295 295 295
289 290 292 294 294 296 297 292 294 294 291 293 294 294 294 292 289 288 286 286 285 285 284 283 282 282 280 279 280 283 283 282 283 284 285 285 286 287 289 291 292 293 294 294
290 291 288 292 296 295 293 292 292 292 291 290 290 290 291 290 290 287 286 284 283 282 282 280 279 280 278 277 277 280 280 279 279 280 281 282 284 286 287 289 290 292 292 293
286 288 292 290 292 294 291 291 291 292 291 289 288 288 288 292 294 287 284 284 282 281 280 278 278 278 276 275 276 277 277 276 275 275 277 279 281 285 286 287 288 290 291 292
286 286 288 289 289 291 290 290 290 293 291 288 287 286 286 286 285 284 283 283 281 279 278 277 276 277 275 273 274 275 274 273 273 273 274 277 279 282 285 286 288 289 289 290
285 286 287 288 289 288 290 289 289 290 289 287 285 284 284 284 283 281 281 281 279 278 277 275 275 275 274 272 272 272 272 271 271 271 273 275 277 279 283 285 288 289 289 290
285 285 285 286 286 289 287 288 285 286 289 285 283 281 280 281 280 280 279 279 278 276 275 274 273 273 273 271 270 271 270 270 269 270 271 273 275 278 279 284 286 288 288 289
285 285 287 287 287 288 286 282 282 281 281 279 278 278 277 277 277 277 277 277 276 274 273 272 272 272 272 270 269 269 268 268 268 268 270 271 273 275 278 281 285 286 288 288
286 285 286 286 287 287 281 280 279 279 277 276 275 275 275 275 275 275 274 274 274 273 272 271 270 270 270 269 267 267 266 266 267 267 269 270 271 273 275 279 280 283 286 287
286 286 286 287 282 282 283 278 275 277 275 274 273 273 272 272 272 272 272 272 271 270 270 269 269 268 268 267 266 265 264 264 264 266 268 268 269 271 274 276 277 280 283 285
Wind_Speed
9 9 20 22 25 28 17 15 22 13 4 6 19 27 23 21 23 22 22 23 24 24 25 25 27 32 33 31 33 35 35 36 35 32 30 26 27 29 26 27 26 26 25 25
6 22 23 21 22 24 25 24 27 18 11 6 20 34 25 21 26 24 24 24 25 26 24 21 24 27 33 36 35 37 40 39 42 38 36 25 27 24 25 26 27 30 28 26
22 26 15 19 17 21 25 27 25 22 9 15 14 30 22 20 27 25 23 24 25 25 23 20 17 26 28 32 38 40 40 41 42 39 34 26 24 16 20 24 26 31 30 29
18 28 14 15 22 23 24 19 21 19 8 11 2 16 20 18 15 12 15 19 22 21 18 18 16 19 28 35 32 36 39 40 42 42 39 39 36 28 27 37 38 34 31 30
16 9 17 21 25 20 13 6 15 16 16 11 16 8 16 4 5 13 19 19 16 13 14 15 16 17 26 28 33 35 36 39 41 45 43 40 35 32 23 27 30 34 34 32
21 3 6 7 1 20 15 8 7 4 5 8 18 13 35 15 12 11 7 6 2 1 3 6 7 12 20 22 26 30 34 37 39 42 42 42 38 33 28 30 30 30 35 34
16 20 6 4 6 4 12 10 5 6 6 11 3 13 28 7 11 11 8 5 6 5 5 8 6 6 10 18 23 27 32 35 39 41 41 42 40 37 36 36 33 31 28 30
9 9 21 16 20 11 17 16 7 12 10 14 6 13 11 6 12 11 7 9 11 7 5 5 6 3 5 13 19 23 26 28 32 34 37 37 37 35 34 35 33 33 34 37
5 8 3 2 6 14 8 13 19 6 1 4 8 11 10 14 14 8 7 4 4 7 8 10 10 9 4 5 12 19 23 26 30 33 34 34 35 34 32 32 35 36 35 33
12 15 2 3 3 6 10 6 7 6 8 11 13 16 12 6 5 5 9 10 10 12 13 13 13 12 12 7 3 11 17 23 26 29 32 33 34 34 33 32 34 33 36 36
11 9 4 1 10 15 8 9 6 3 6 6 7 6 6 4 7 9 11 12 12 13 14 14 14 15 18 15 8 2 9 14 18 23 26 29 31 32 31 35 38 41 40 41
10 7 11 19 1 3 10 14 18 6 8 6 5 4 6 10 10 11 11 11 12 14 13 13 15 14 19 20 18 11 3 7 13 18 21 24 25 27 29 31 34 38 39 38
14 5 5 6 2 1 5 14 9 18 3 15 10 9 4 7 9 9 11 10 11 12 14 14 14 15 15 20 20 19 16 7 3 10 15 18 20 23 26 27 27 32 33 35
11 6 10 10 16 14 6 8 18 16 11 14 14 19 9 9 7 7 10 10 11 13 14 14 14 14 15 20 21 21 19 17 11 3 9 14 17 19 20 21 22 25 29 32
9 10 14 19 21 20 19 9 8 15 22 14 19 17 10 8 8 7 7 9 11 13 15 15 14 14 14 19 21 22 21 21 18 10 3 6 9 13 15 18 23 26 29 33
8 11 16 18 20 14 18 15 17 13 19 22 22 23 11 10 9 8 9 10 12 13 14 14 15 15 15 20 21 21 22 22 20 19 16 11 4 7 12 14 17 21 28 30
8 8 11 16 19 18 11 2 9 9 12 16 19 19 4 6 10 10 8 11 12 12 13 14 14 14 19 22 21 20 20 20 20 19 19 18 15 8 5 9 14 22 24 25
11 14 7 8 9 10 5 14 6 12 16 14 11 10 8 10 13 13 13 12 12 12 12 12 11 15 19 20 21 18 20 21 20 21 20 19 19 17 11 7 13 17 21 27
9 10 5 5 8 10 7 10 7 5 7 12 13 14 8 10 16 15 13 12 11 10 10 13 16 16 18 20 20 17 19 20 22 23 22 21 19 19 18 13 11 13 19 24
15 11 7 5 5 4 4 10 13 6 2 8 9 12 14 4 1 6 11 10 11 12 13 12 13 16 19 21 20 17 18 20 23 24 23 23 21 17 16 16 14 13 16 21
7 5 6 9 6 4 7 12 9 3 3 4 8 9 11 8 4 5 8 9 11 12 13 14 14 13 15 21 22 18 16 20 21 22 22 22 24 22 21 20 15 12 14 17
5 6 6 6 6 4 11 9 6 2 2 2 3 5 5 5 5 8 9 9 10 11 15 17 16 14 15 17 17 17 20 23 24 22 21 23 23 20 20 20 17 12 10 14
5 3 5 4 7 14 5 3 5 8 2 2 2 3 4 4 5 6 6 7 8 10 12 13 15 14 13 16 18 19 21 25 29 29 29 26 24 23 23 20 18 11 7 9
4 4 5 7 4 9 1 5 5 7 6 5 5 5 5 5 6 7 7 7 7 10 12 12 14 14 13 14 16 15 19 20 24 24 24 24 26 27 24 20 17 14 10 9
10 4 6 7 12 4 3 4 2 3 4 4 4 4 3 5 6 7 8 8 8 11 12 14 14 14 14 13 14 16 18 19 19 21 20 20 19 21 23 18 18 19 16 14
9 9 5 9 1 3 4 1 1 3 2 0 3 4 3 4 6 6 7 10 13 14 16 18 17 17 17 18 18 16 18 16 17 20 18 18 19 20 18 20 23 15 16 18
Wind_Direction
194 213 219 214 219 238 262 263 262 268 253 249 254 265 263 267 267 260 256 257 257 254 250 242 225 218 217 212 206 203 199 197 189 188 185 190 193 194 196 199 200 199 200 201
173 231 228 230 228 236 241 254 259 264 252 259 277 276 274 261 261 254 251 251 251 254 251 238 220 208 207 205 202 199 199 194 192 191 192 190 193 200 198 197 199 201 200 201
214 238 208 204 214 223 235 239 250 253 277 256 283 281 277 252 241 254 250 248 251 249 250 245 219 210 209 208 204 200 197 193 193 190 185 184 177 185 194 199 197 199 202 203
234 249 198 195 222 208 239 233 242 248 242 259 237 283 280 277 241 234 244 239 240 245 246 249 235 213 208 210 205 201 197 195 191 186 186 183 182 184 198 195 200 199 200 203
221 204 200 217 223 187 236 175 212 226 233 275 227 258 270 98 255 257 248 245 252 250 250 250 241 229 220 208 202 199 196 194 192 189 190 188 193 195 190 189 187 197 200 204
250 65 219 225 93 188 135 116 101 130 198 240 237 217 278 267 278 263 284 251 192 115 230 247 257 243 227 213 199 196 196 195 192 191 192 191 193 188 178 182 187 189 198 201
236 228 195 177 134 156 192 162 188 210 201 242 182 200 256 319 289 261 271 246 285 294 299 295 283 231 218 208 200 194 194 194 192 192 194 193 193 190 187 184 187 187 188 195
223 234 199 186 216 182 197 189 206 229 221 242 165 225 246 255 265 293 298 279 283 296 343 4 358 323 227 209 201 199 197 195 192 193 195 196 195 193 193 190 189 191 194 200
253 248 196 203 210 189 175 213 234 282 14 273 218 253 269 249 263 311 355 9 36 48 34 30 23 17 359 211 207 203 199 195 192 193 194 195 196 194 194 191 193 196 198 198
282 280 157 145 183 239 214 164 185 219 224 228 245 259 256 236 220 53 50 50 53 47 39 35 31 25 21 7 232 207 206 202 197 194 193 193 195 195 193 190 192 194 200 203
285 242 261 170 211 197 180 202 221 255 231 236 254 239 4 39 87 84 67 60 56 53 42 37 37 34 34 34 22 209 206 202 200 198 195 194 195 194 193 195 198 203 206 208
358 296 261 235 129 294 256 230 203 206 197 233 303 264 60 88 85 87 76 64 53 51 46 39 37 34 35 34 32 27 353 216 206 202 199 199 198 196 196 198 199 203 206 210
1 316 297 230 195 30 227 228 249 243 345 224 220 242 124 116 93 75 73 58 54 46 41 40 38 33 28 25 24 27 28 9 251 206 200 199 201 201 205 203 200 202 203 207
339 295 323 310 320 329 269 224 215 214 228 224 222 235 173 171 129 82 69 57 48 43 36 33 33 31 25 22 20 17 18 16 4 272 215 207 207 209 209 207 204 204 204 207
328 298 306 302 296 298 282 259 251 228 224 221 231 242 206 153 117 75 57 61 54 47 40 32 26 23 20 20 19 14 15 15 11 11 316 243 217 211 210 207 211 211 212 213
300 288 300 289 307 313 315 298 239 236 251 258 249 246 81 108 110 75 56 53 48 43 41 36 28 23 19 16 15 11 9 15 21 26 22 7 304 222 215 217 216 215 217 213
287 284 295 285 298 312 285 331 327 257 229 250 246 256 203 108 69 51 51 59 53 36 30 28 26 21 15 10 8 10 7 15 24 24 19 12 6 353 273 228 214 219 215 212
271 283 251 268 283 260 66 23 26 75 35 12 23 19 29 103 94 66 47 47 41 30 25 21 17 16 14 8 4 6 9 17 21 21 16 8 360 353 344 293 247 236 227 222
329 291 311 285 306 304 22 13 341 338 45 19 20 14 1 132 106 63 41 42 45 40 23 12 9 15 13 9 2 7 14 13 17 13 5 359 353 344 344 333 289 259 243 236
347 329 293 278 290 299 37 327 327 266 112 25 26 24 12 203 91 51 20 30 29 32 30 26 14 14 8 5 3 8 13 11 7 359 351 346 345 340 338 334 315 281 258 249
313 313 329 320 305 281 2 321 313 311 53 43 40 27 30 49 41 29 21 20 18 19 20 19 20 23 18 360 359 1 5 15 354 351 351 347 347 341 340 339 336 309 276 258
291 308 329 318 306 288 360 335 359 332 109 110 77 47 31 37 26 20 17 9 7 8 6 10 7 6 5 6 5 0 1 347 349 355 353 350 347 344 337 336 340 333 299 258
271 286 281 274 282 313 16 12 14 350 188 136 112 50 17 6 3 355 356 358 359 358 352 358 352 348 359 1 2 354 346 346 347 350 350 345 345 347 345 336 334 332 322 266
246 207 242 303 256 298 195 79 39 46 48 39 33 30 18 350 340 335 337 343 337 339 340 343 342 340 340 351 350 344 337 340 344 339 339 341 340 338 340 336 332 336 312 274
263 262 253 257 280 269 150 99 49 90 67 15 10 6 349 332 317 321 319 318 322 322 326 331 328 323 323 331 334 330 329 339 340 333 332 333 332 329 323 322 326 322 311 289
250 243 233 267 180 256 288 149 176 203 165 69 317 314 307 292 281 291 292 301 307 310 316 317 315 313 315 318 317 318 322 330 332 323 324 324 321 319 317 318 319 321 309 306